{"data":{"norad_id":63211,"epoch":"2026-09-22T15:58:58.989792Z","epoch_age_seconds":123978,"freshness":"FRESH","line1":"1 63211U 25052B   26265.66596053  .00016549  00000+0  42265-3 0  9994","line2":"2 63211  97.3834 163.6316 0005058  95.2830 264.8993 15.39540929 85124","mean_motion":15.39540929,"eccentricity":0.0005058,"inclination_deg":97.3834,"raan_deg":163.6316,"arg_perigee_deg":95.283,"mean_anomaly_deg":264.8993,"bstar":0.00042265,"rev_number":8512,"period_min":93.534375921746,"perigee_km":444.01346140202,"apogee_km":450.91824124642,"semimajor_km":6825.6028513242,"source":"CELESTRAK","updated_at":"2026-09-23T09:00:21.897274Z"}}